Regional Weather Roundup
Issued by NWS Lake Charles, LA

Home | Current Version | Previous Version | Text Only | Print | Product List | Glossary On
Versions: 1 2 3 4 5 6 7 8 9 10 11 12 13 14 15 16 17 18 19 20 21 22 23 24 25 26 27 28 29 30 31 32 33 34 35 36 37 38 39 40 41 42 43 44 45 46 47 48 49 50
865
ASUS44 KLCH 100910
RWRLCH
REGIONAL WEATHER ROUNDUP
NATIONAL WEATHER SERVICE LAKE CHARLES LA
300 AM CST SAT DEC 10 2016

Note: "fair" indicates few or no clouds below 12,000 feet with no
significant weather and/or obstructions to visibility.


ACROSS SOUTHEAST TEXAS

CITY           SKY/WX    TMP DP  RH WIND       PRES   REMARKS
BEAUMONT       CLEAR     38  28  67 NE7       30.51F
BEAUMONT CITY  FAIR      38  28  66 E5        30.51F
ORANGE         SUNNY     35  26  69 NE6       30.53F
JASPER         CLEAR     33  29  85 E3        30.54F
$$

ACROSS CENTRAL LOUISIANA

CITY           SKY/WX    TMP DP  RH WIND       PRES   REMARKS
LEESVILLE      CLEAR     32  26  77 VRB5      30.52F WCI  27
FULLERTON      FAIR      31  26  82 CALM      30.50F
ALEXANDRIA INT CLEAR     31  26  82 NE6       30.54F WCI  25
ESLER FIELD    CLEAR     30  26  85 CALM      30.55S
DERIDDER       FAIR      32  25  74 CALM      30.55F
OAKDALE        SUNNY     30  28  92 CALM      30.55S
OPELOUSAS      FAIR      32  27  84 NE5       30.54S WCI  27
$$

ACROSS SOUTHWEST AND SOUTH CENTRAL LOUISIANA

CITY           SKY/WX    TMP DP  RH WIND       PRES   REMARKS
SULPHUR        SUNNY     38  27  64 NE9       30.53F
LAKE CHARLES   CLEAR     33  29  85 NE6       30.53S WCI  28
CHENNAULT INT  CLEAR     33  27  79 NE5       30.53F WCI  29
CAMERON PHI    PTSUNNY   39  30  70 NE12      30.50F
DEQUINCY       FAIR      33  27  79 CALM      30.53F
JENNINGS       FAIR      34  28  80 NE7       30.53S WCI  28
LAFAYETTE      CLEAR     33  29  85 N5        30.54S WCI  29
NEW IBERIA     CLEAR     37  25  61 NE10      30.53F WCI  30
ABBEVILLE      FAIR      34  28  80 MISG      30.53R
PATTERSON      PTCLDY   N/A N/A N/A NE6       30.52R
SALT POINT     NOT AVBL
$$

SELECTED SITES ACROSS THE REGION

CITY           SKY/WX    TMP DP  RH WIND       PRES   REMARKS
HOUSTON BUSH   PTCLDY    40  30  67 NE7       30.50F
HOUSTON HOBBY  PTCLDY    42  30  62 NE5       30.49F
GALVESTON      CLEAR     47  36  65 N14       30.49F
COLLEGE STAT   CLEAR     37  28  70 E5        30.49F
CONROE         CLEAR     36  29  75 E5        30.50F
HUNTSVILLE     CLEAR     33  29  85 CALM      30.49F
LUFKIN         CLEAR     31  26  82 E3        30.51F
SHREVEPORT     CLOUDY    37  25  61 E7        30.52F
MONROE         CLEAR     27  25  92 CALM      30.60S
NATCHEZ MS     CLEAR     28  21  74 CALM      30.54F
BATON ROUGE    CLEAR     32  25  75 NE6       30.54S WCI  26
N.O. INTL ARPT CLEAR     42  28  57 E10G17    30.52R
SLIDELL        PTCLDY    30  26  85 N3        30.53R
$$

MARINE REPORTS

STATION/POSITION TIME  SKY/WX   TEMP    WIND        PRES    VSBY
                                AIR SEA DIR/SP/G
                 (UTC)          (F)     (DEG/KT/KT) (MB)    (MI)
BUOY 30 S HIGH I 0850            53 64   60/ 16/ 19 1031.6F
WVE H/P(F/S)=  3/ 5

SEA RIM ST PARK  0900            39      60/  7/ 10 1033.3F
PORT ARTHUR      0842               54   60/  4/  8 1033.2F
SABINE PASS N    0836            41 56   30/  8/ 11 1034.2F
TEXAS POINT      NOT AVBL
CALCASIEU PASS   0848            38 53   60/  9/ 12   N/A
LK CHARLES BEACH 0848            36 53              1034.2F
MARSH ISLAND     0800            45                   N/A
FRESH WATER LOCK 0848            38 54   30/  8/ 11 1033.6F
AMERADA PASS     0848            40 55   50/  2/  5 1032.9R
$$




USA.gov is the U.S. government's official web portal to all federal, state and local government web resources and services.